TimePDT,TemperatureF,Dew PointF,Humidity,Sea Level PressureIn,VisibilityMPH,Wind Direction,Wind SpeedMPH,Gust SpeedMPH,PrecipitationIn,Events,Conditions,WindDirDegrees,DateUTC
12:15 AM,51.8,48.2,88,30.12,4.0,North,3.5,-,N/A,,Clear,10,2011-10-25 07:15:00
12:35 AM,51.8,48.2,88,30.12,4.0,Calm,Calm,-,N/A,,Clear,0,2011-10-25 07:35:00
12:55 AM,51.8,48.2,88,30.12,4.0,Calm,Calm,-,N/A,,Clear,0,2011-10-25 07:55:00
1:15 AM,50.0,46.4,87,30.11,3.0,Calm,Calm,-,N/A,,Clear,0,2011-10-25 08:15:00
1:35 AM,48.2,46.4,93,30.11,3.0,Calm,Calm,-,N/A,,Clear,0,2011-10-25 08:35:00
1:55 AM,48.2,46.4,93,30.12,3.0,North,3.5,-,N/A,,Clear,350,2011-10-25 08:55:00
2:15 AM,48.2,46.4,93,30.11,4.0,Calm,Calm,-,N/A,,Clear,0,2011-10-25 09:15:00
2:35 AM,48.2,44.6,87,30.11,4.0,Calm,Calm,-,N/A,,Clear,0,2011-10-25 09:35:00
2:55 AM,48.2,44.6,87,30.11,4.0,Calm,Calm,-,N/A,,Clear,0,2011-10-25 09:55:00
3:15 AM,48.2,46.4,93,30.11,4.0,West,4.6,-,N/A,,Clear,260,2011-10-25 10:15:00
3:35 AM,50.0,44.6,82,30.10,5.0,West,3.5,-,N/A,,Haze,280,2011-10-25 10:35:00
3:55 AM,50.0,46.4,87,30.10,5.0,Calm,Calm,-,N/A,,Clear,0,2011-10-25 10:55:00
4:15 AM,50.0,46.4,87,30.09,5.0,West,3.5,-,N/A,,Haze,270,2011-10-25 11:15:00
4:35 AM,50.0,46.4,87,30.09,5.0,West,4.6,-,N/A,,Haze,270,2011-10-25 11:35:00
4:55 AM,50.0,46.4,87,30.09,5.0,West,5.8,-,N/A,,Clear,270,2011-10-25 11:55:00
5:15 AM,50.0,44.6,82,30.08,5.0,West,4.6,-,N/A,,Haze,280,2011-10-25 12:15:00
5:35 AM,48.2,44.6,87,30.08,5.0,West,3.5,-,N/A,,Clear,280,2011-10-25 12:35:00
5:55 AM,50.0,44.6,82,30.08,5.0,WNW,4.6,-,N/A,,Haze,290,2011-10-25 12:55:00
6:15 AM,48.2,46.4,93,30.08,3.0,NW,3.5,-,N/A,,Clear,310,2011-10-25 13:15:00
6:35 AM,48.2,46.4,93,30.07,4.0,Calm,Calm,-,N/A,,Clear,0,2011-10-25 13:35:00
6:55 AM,50.0,46.4,87,30.08,4.0,Calm,Calm,-,N/A,,Clear,0,2011-10-25 13:55:00
7:15 AM,46.4,46.4,100,30.08,2.5,West,3.5,-,N/A,,Clear,270,2011-10-25 14:15:00
7:35 AM,46.4,44.6,93,30.08,3.0,West,4.6,-,N/A,,Clear,260,2011-10-25 14:35:00
7:55 AM,50.0,44.6,82,30.08,5.0,WSW,3.5,-,N/A,,Haze,250,2011-10-25 14:55:00
8:15 AM,53.6,48.2,82,30.09,3.0,WSW,4.6,-,N/A,,Haze,250,2011-10-25 15:15:00
8:35 AM,55.4,50.0,82,30.09,3.0,WNW,5.8,-,N/A,,Haze,290,2011-10-25 15:35:00
8:55 AM,55.4,50.0,82,30.09,3.0,WNW,8.1,-,N/A,,Haze,290,2011-10-25 15:55:00
9:15 AM,57.2,48.2,72,30.10,5.0,NW,10.4,-,N/A,,Haze,310,2011-10-25 16:15:00
9:35 AM,59.0,48.2,67,30.10,5.0,NW,9.2,-,N/A,,Haze,310,2011-10-25 16:35:00
9:55 AM,59.0,48.2,67,30.10,5.0,NW,10.4,-,N/A,,Haze,310,2011-10-25 16:55:00
10:15 AM,60.8,48.2,63,30.10,5.0,NW,11.5,-,N/A,,Haze,310,2011-10-25 17:15:00
10:35 AM,-9999,-9999,N/A,30.09,5.0,NW,12.7,16.1,N/A,,Haze,320,2011-10-25 17:35:00
10:55 AM,-9999,-9999,N/A,30.09,-9999.0,NW,15.0,-,N/A,,Unknown,320,2011-10-25 17:55:00
11:35 AM,62.6,48.2,59,30.09,5.0,NNW,16.1,-,N/A,,Haze,330,2011-10-25 18:35:00
11:55 AM,62.6,48.2,59,30.09,5.0,NW,20.7,24.2,N/A,,Haze,320,2011-10-25 18:55:00
12:15 PM,60.8,48.2,63,30.09,5.0,NW,16.1,21.9,N/A,,Haze,320,2011-10-25 19:15:00
12:35 PM,62.6,48.2,59,30.08,5.0,NW,16.1,23.0,N/A,,Haze,320,2011-10-25 19:35:00
1:35 PM,60.8,48.2,63,30.06,5.0,NW,12.7,-,N/A,,Haze,310,2011-10-25 20:35:00
1:55 PM,59.0,48.2,67,30.05,5.0,NW,20.7,25.3,N/A,,Haze,320,2011-10-25 20:55:00
2:15 PM,-9999,-9999,N/A,30.04,5.0,NW,17.3,25.3,N/A,,Haze,310,2011-10-25 21:15:00
2:35 PM,-9999,-9999,N/A,30.03,-9999.0,NW,19.6,-,N/A,,Unknown,310,2011-10-25 21:35:00
2:55 PM,-9999,-9999,N/A,30.03,-9999.0,WNW,19.6,25.3,N/A,,Unknown,300,2011-10-25 21:55:00
3:15 PM,57.2,48.2,72,30.04,5.0,WNW,18.4,25.3,N/A,,Haze,300,2011-10-25 22:15:00
3:35 PM,-9999,-9999,N/A,-9999,-9999.0,North,-9999.0,-,N/A,,Unknown,0,2011-10-25 22:35:00
4:15 PM,-9999,-9999,N/A,-9999,4.0,North,-9999.0,-,N/A,,Haze,0,2011-10-25 23:15:00
4:35 PM,55.4,48.2,77,30.04,4.0,NW,18.4,23.0,N/A,,Haze,310,2011-10-25 23:35:00
4:55 PM,53.6,48.2,82,30.03,4.0,WNW,16.1,21.9,N/A,,Haze,300,2011-10-25 23:55:00
5:15 PM,53.6,48.2,82,30.03,4.0,WNW,17.3,-,N/A,,Haze,300,2011-10-26 00:15:00
5:35 PM,53.6,46.4,77,30.02,5.0,NW,16.1,19.6,N/A,,Haze,310,2011-10-26 00:35:00
6:15 PM,51.8,44.6,76,30.02,6.0,NW,19.6,26.5,N/A,,Haze,310,2011-10-26 01:15:00
6:35 PM,51.8,44.6,76,30.03,8.0,NW,19.6,26.5,N/A,,Partly Cloudy,310,2011-10-26 01:35:00
6:55 PM,50.0,44.6,82,30.03,8.0,WNW,21.9,27.6,N/A,,Partly Cloudy,300,2011-10-26 01:55:00
7:15 PM,50.0,44.6,82,30.04,8.0,NW,20.7,27.6,N/A,,Partly Cloudy,310,2011-10-26 02:15:00
7:35 PM,50.0,44.6,82,30.04,8.0,WNW,18.4,26.5,N/A,,Partly Cloudy,300,2011-10-26 02:35:00
7:55 PM,50.0,44.6,82,30.04,7.0,WNW,18.4,25.3,N/A,,Partly Cloudy,300,2011-10-26 02:55:00
8:15 PM,51.8,44.6,76,30.04,7.0,WNW,20.7,25.3,N/A,,Partly Cloudy,300,2011-10-26 03:15:00
8:35 PM,51.8,44.6,76,30.04,7.0,WNW,18.4,26.5,N/A,,Scattered Clouds,290,2011-10-26 03:35:00
9:15 PM,50.0,44.6,82,30.04,7.0,WNW,18.4,27.6,N/A,,Clear,300,2011-10-26 04:15:00
9:35 PM,50.0,44.6,82,30.05,7.0,WNW,18.4,24.2,N/A,,Clear,300,2011-10-26 04:35:00
9:55 PM,50.0,44.6,82,30.06,7.0,WNW,16.1,23.0,N/A,,Partly Cloudy,300,2011-10-26 04:55:00
10:15 PM,50.0,44.6,82,30.06,6.0,NW,12.7,21.9,N/A,,Haze,310,2011-10-26 05:15:00
10:35 PM,50.0,46.4,87,30.06,6.0,WNW,13.8,19.6,N/A,,Haze,300,2011-10-26 05:35:00
10:55 PM,50.0,46.4,87,30.06,5.0,WNW,15.0,-,N/A,,Clear,300,2011-10-26 05:55:00
11:15 PM,48.2,46.4,93,30.06,5.0,NW,11.5,-,N/A,,Clear,310,2011-10-26 06:15:00
11:35 PM,48.2,46.4,93,30.05,5.0,NW,16.1,-,N/A,,Partly Cloudy,310,2011-10-26 06:35:00
11:55 PM,48.2,46.4,93,30.07,6.0,NW,13.8,-,N/A,,Clear,310,2011-10-26 06:55:00